Santa Barbara, CA

5:25 AM PST on November 24, 2017 (GMT -0800)
Santa Barbara Municipal

Weather History for KSBA - January, 2013

Change the Weather History Date:

Friday, January 18, 2013

  Actual Average Record
Temperature  
Mean Temperature 55 °F 52 °F  
Max Temperature 74 °F 64 °F 80 °F (1994)
Min Temperature 35 °F 41 °F 28 °F (1943)
Degree Days  
Heating Degree Days 10 13  
Month to date heating degree days 298 234  
Since 1 July heating degree days 1010 1118  
Cooling Degree Days 0 0  
Month to date cooling degree days 0 0  
Year to date cooling degree days 0 0  
Growing Degree Days 4 (Base 50)    
Moisture  
Dew Point 31 °F    
Average Humidity 48    
Maximum Humidity 82    
Minimum Humidity 13    
Precipitation  
Precipitation 0.00 in 0.11 in 2.75 in (1973)
Month to date precipitation 0.34 2.14  
Year to date precipitation 0.34 2.14  
Since 1 July precipitation 6.41  
Sea Level Pressure  
Sea Level Pressure 30.10 in    
Wind  
Wind Speed 3 mph (West)    
Max Wind Speed 12 mph    
Max Gust Speed 14 mph    
Visibility 10 miles    
Events      
T = Trace of Precipitation, MM = Missing Value Source: NWS Daily Summary

Daily Weather History Graph

Daily Weather History Graph

Search for Another Location

Airport or City:

Trip Planner

Search our weather history database for the weather conditions in past years. The results will help you decide how hot, cold, wet, or windy it might be!

Date:

Astronomy

Jan. 18, 2013 Rise Set
Actual Time 7:04 AM PST 5:15 PM PST
Civil Twilight 6:37 AM PST 5:42 PM PST
Nautical Twilight 6:06 AM PST 6:13 PM PST
Astronomical Twilight 5:36 AM PST 6:43 PM PST
Moon 11:07 AM PST (1/18) No Moon Set
Length of Visible Light 11h 05m
Length of Day
10h 11m
Waxing Crescent, 48% of the Moon is Illuminated
Jan 18
Waxing Crescent
Jan 18
First Quarter
Jan 26
Full
Feb 3
Last Quarter
Feb 9
New

Hourly Weather History & Observations

Time (PST) Temp. Windchill Dew Point Humidity Pressure Visibility Wind Dir Wind Speed Gust Speed Precip Events Conditions
12:53 AM 39.0 °F - 34.0 °F 82% 30.12 in 10.0 mi Calm Calm - N/A   Clear
1:53 AM 39.0 °F 36.8 °F 34.0 °F 82% 30.12 in 10.0 mi North 3.5 mph - N/A   Clear
2:53 AM 37.9 °F - 32.0 °F 79% 30.11 in 10.0 mi Calm Calm - N/A   Clear
3:53 AM 37.9 °F - 30.9 °F 76% 30.11 in 10.0 mi Calm Calm - N/A   Clear
4:53 AM 37.0 °F 32.4 °F 30.0 °F 76% 30.10 in 10.0 mi NNE 5.8 mph - N/A   Clear
5:53 AM 37.0 °F - 30.0 °F 76% 30.10 in 10.0 mi Calm Calm - N/A   Clear
6:53 AM 36.0 °F - 30.9 °F 82% 30.10 in 10.0 mi Calm Calm - N/A   Partly Cloudy
7:53 AM 39.9 °F - 30.9 °F 70% 30.12 in 10.0 mi Calm Calm - N/A   Scattered Clouds
8:53 AM 52.0 °F - 37.0 °F 57% 30.14 in 10.0 mi Calm Calm - N/A   Partly Cloudy
9:53 AM 64.0 °F - 33.1 °F 31% 30.15 in 10.0 mi WSW 3.5 mph - N/A   Scattered Clouds
10:53 AM 66.9 °F - 28.0 °F 23% 30.14 in 10.0 mi WSW 4.6 mph - N/A   Clear
11:53 AM 68.0 °F - 28.0 °F 22% 30.11 in 10.0 mi West 5.8 mph - N/A   Clear
12:53 PM 69.1 °F - 25.0 °F 19% 30.08 in 10.0 mi WSW 5.8 mph - N/A   Scattered Clouds
1:53 PM 72.0 °F - 24.1 °F 17% 30.06 in 10.0 mi West 5.8 mph - N/A   Clear
2:53 PM 73.0 °F - 19.0 °F 13% 30.06 in 10.0 mi West 9.2 mph - N/A   Clear
3:53 PM 72.0 °F - 23.0 °F 16% 30.06 in 10.0 mi WNW 8.1 mph - N/A   Clear
4:53 PM 64.0 °F - 28.9 °F 27% 30.06 in 10.0 mi WSW 8.1 mph - N/A   Clear
5:53 PM 57.9 °F - 30.9 °F 36% 30.08 in 10.0 mi West 3.5 mph - N/A   Clear
6:53 PM 53.1 °F - 34.0 °F 48% 30.08 in 10.0 mi Calm Calm - N/A   Clear
7:53 PM 48.0 °F - 34.0 °F 58% 30.09 in 10.0 mi Calm Calm - N/A   Clear
8:53 PM 46.9 °F - 35.1 °F 63% 30.09 in 10.0 mi Calm Calm - N/A   Clear
9:53 PM 45.0 °F - 34.0 °F 65% 30.11 in 10.0 mi Calm Calm - N/A   Clear
10:53 PM 45.0 °F - 34.0 °F 65% 30.10 in 10.0 mi Calm Calm - N/A   Clear
11:53 PM 44.1 °F - 34.0 °F 68% 30.09 in 10.0 mi Calm Calm - N/A   Clear